sat.trackr.live / text

‹ back to catalog

STARLINK-31102

NORAD 58715 · 2024-002L

PAYLOAD ACTIVE UNKNOWN

§ Identity

Operator
Country
US
Launch date
2024-01-03
Launch site
AFWTR
Launch vehicle
Mass (kg)
RCS (m²)

Purposes: comms

External: N2YO · Heavens-Above · Gunter

§ Orbital elements

Epoch: 2026-09-20T14:24:40.378176Z

Period
93.85 min
Inclination
53.1618°
Eccentricity
0.0001250
Mean motion
15.34389167 rev/d
Perigee alt
461.9 km
Apogee alt
463.6 km
Semi-major
6,840.9 km
B*
7.6085e-5
RAAN
41.2842°
Arg perigee
77.1863°
Mean anomaly
282.9279°
Rev number
15,190

§ Raw data

STARLINK-311021 58715U 24002L   26263.60046734  .00002194  00000+0  76085-4 0  99982 58715  53.1618  41.2842 0001250  77.1863 282.9279 15.34389167151905

JSON: /api/v1/satellites/58715 · /tle

For live sub-satellite position, see the globe view (requires WebGL).

§ Visibility from observer

Set your observer location to see the next 7 days of passes ≥ 10°. The values pass through the URL so the page stays shareable.

No JS? Fill the form by hand. The geolocation button needs JavaScript.